This is the latest recevied weather packets stored in our database for station/object K1KOF. If no packets are shown the sender has not sent any weather packets the latest 10 day(s).
| Time | Temp. | Humidity | Pressure | Rain* | Wind** | Luminosity | Snow |
|---|---|---|---|---|---|---|---|
| 1778243363 | 15° C | 99% | 1027.9 hPa | 0 mm | - | 56 W/m² | - |
| 1778243060 | 14.44° C | 99% | 1028.1 hPa | 0 mm | - | 46 W/m² | - |
| 1778242757 | 14.44° C | 99% | 1028.2 hPa | 0 mm | - | 46 W/m² | - |
| 1778242456 | 13.89° C | 99% | 1027.7 hPa | 0 mm | - | 49 W/m² | - |
| 1778242153 | 13.89° C | 99% | 1027.5 hPa | 0 mm | - | 45 W/m² | - |
| 1778241851 | 13.89° C | 99% | 1028 hPa | 0 mm | - | 35 W/m² | - |
| 1778241548 | 13.33° C | 99% | 1027.7 hPa | 0 mm | - | 49 W/m² | - |
| 1778241246 | 13.33° C | 99% | 1027.8 hPa | 0 mm | - | 53 W/m² | - |
| 1778240942 | 13.33° C | 99% | 1027.5 hPa | 0 mm | - | 39 W/m² | - |
| 1778240639 | 12.78° C | 99% | 1027.7 hPa | 0 mm | - | 34 W/m² | - |
| 1778240335 | 12.22° C | 99% | 1027.4 hPa | 0 mm | - | 28 W/m² | - |
| 1778240034 | 12.22° C | 99% | 1027.4 hPa | 0 mm | - | 28 W/m² | - |
| 1778239730 | 12.22° C | 99% | 1027.1 hPa | 0 mm | - | 29 W/m² | - |
| 1778239427 | 12.22° C | 99% | 1027.1 hPa | 0 mm | - | 28 W/m² | - |
| 1778239123 | 11.67° C | 99% | 1026.9 hPa | 0 mm | - | 38 W/m² | - |
| 1778238821 | 11.67° C | 99% | 1026.6 hPa | 0 mm | - | 29 W/m² | - |
| 1778238518 | 11.11° C | 99% | 1026.8 hPa | 0 mm | - | 22 W/m² | - |
| 1778238215 | 11.11° C | 99% | 1026.6 hPa | 0 mm | - | 15 W/m² | - |
| 1778237915 | 11.11° C | 99% | 1026.5 hPa | 0 mm | - | 12 W/m² | - |
| 1778237612 | 11.11° C | 99% | 1026.5 hPa | 0 mm | - | 10 W/m² | - |
| 1778237309 | 11.11° C | 99% | 1026.6 hPa | 0 mm | - | 5 W/m² | - |
| 1778237006 | 11.67° C | 99% | 1026.4 hPa | 0 mm | - | 4 W/m² | - |
| 1778236703 | 11.67° C | 99% | 1026.3 hPa | 0 mm | - | 2 W/m² | - |
| 1778236400 | 11.67° C | 99% | 1026.3 hPa | 0 mm | - | 0 W/m² | - |
| 1778236098 | 11.67° C | 99% | 1026.3 hPa | 0 mm | - | 0 W/m² | - |
* Rain latest hour (hover to see other rain measurements)
** Current wind speed in m/s (hover to see current wind gust speed)